Content
SEND FEEDBACK

Daily
Averages
Monthly
Summary
France

ANNEMASSE, FRANCE


Home > Europe > France
Elevation: 1329 feet     Latitude: 46 12N     Longitude: 006 12E

WEATHER
 
SELECT A DAY
Number of Records: 305,866;   Date Range: 7/1/96 - 8/12/14
 
SHARE

PRINT THIS DATA

[ ← Previous Day ]
WEATHER ALMANAC - FEBRUARY 6, 2013
[ Next Day → ]
[ °C ]   °F
Weather ElementAverageHighLow
Temperature34.3 °F37.4 °F (12:20 am)32 °F (8:50 am)
Dewpoint29.3 °F33.8 °F (4:20 pm)23 °F (7:00 am)
Humidity80.5 %100 % (7:20 pm)50 % (7:00 am)
Barometer29.63 in29.80 in (1:00 am)29.50 in (2:20 pm)
Wind Speed10.6 mph18.4 mph (12:00 pm)
Wind Gust26.5 mph (1:20 pm)
Weather ElementAverage
Visibility6 mi
Wind DirectionSSW (197.9 °)

Weather ElementTotal
Precipitation---
Heating Degree Days30.3 (Base 65)
Averaged from 66 records on February 6, 2013
WEATHER CONDITIONS BREAKOUT
WIND DIRECTION BREAKOUT
WEATHER BY HOUR - FEBRUARY 6, 2013
[ °C ]   °F
Local TimeTemperatureDewpointHumidityBarometerVisibilityWind DirectionWind SpeedGust SpeedPrecipitationEventsConditions
12:20 AM37.4 °F28.4 °F70 %29.74 in6.2 miSW (220°)15.0 mphMostly Cloudy
12:50 AM35.6 °F30.2 °F81 %29.74 in3.1 miWest (270°)4.6 mphMostly Cloudy
1:00 AM33.0 °F30.0 °F84 %29.80 in25.0 miNorth (10°)2.3 mphPartly Cloudy
1:20 AM33.8 °F30.2 °F87 %29.71 in6.2 miVariable1.2 mphMostly Cloudy
1:50 AM35.6 °F28.4 °F75 %29.71 in6.2 miSW (230°)11.5 mphMostly Cloudy
2:00 AM36.0 °F27.0 °F59 %29.77 inSW (220°)12.7 mph
2:50 AM33.8 °F30.2 °F87 %29.71 in6.2 miSouth (190°)13.8 mphMostly Cloudy
3:00 AM35.0 °F28.0 °F66 %29.76 inSouth (190°)13.8 mph
3:20 AM35.6 °F28.4 °F75 %29.68 in6.2 miSouth (190°)15.0 mphMostly Cloudy
3:50 AM35.6 °F26.6 °F70 %29.68 in6.2 miSSW (200°)15.0 mphScattered Clouds
4:20 AM35.6 °F26.6 °F70 %29.65 in6.2 miSSW (200°)15.0 mphMostly Cloudy
4:50 AM33.8 °F28.4 °F81 %29.65 in6.2 miSSW (200°)12.7 mphMostly Cloudy
5:00 AM35.0 °F28.0 °F66 %29.72 inSSW (200°)13.8 mph
5:20 AM33.8 °F28.4 °F81 %29.65 in6.2 miSSW (200°)15.0 mphMostly Cloudy
5:50 AM35.6 °F28.4 °F75 %29.65 in6.2 miSSW (200°)15.0 mphMostly Cloudy
6:00 AM35.0 °F26.0 °F60 %29.70 inSSW (200°)13.8 mph
6:20 AM35.6 °F26.6 °F70 %29.62 in6.2 miSSW (200°)12.7 mphMostly Cloudy
6:50 AM35.6 °F24.8 °F65 %29.59 in6.2 miSSW (200°)12.7 mphMostly Cloudy
7:00 AM35.0 °F23.0 °F50 %29.66 in19.0 miSSW (210°)12.7 mphOvercast
7:20 AM35.6 °F24.8 °F65 %29.59 in6.2 miSW (220°)11.5 mphMostly Cloudy
7:50 AM33.8 °F26.6 °F75 %29.59 in6.2 miWSW (240°)12.7 mphMostly Cloudy
8:00 AM34.0 °F26.0 °F62 %29.65 inWSW (240°)15.0 mph
8:20 AM33.8 °F26.6 °F75 %29.59 in5.0 miSW (230°)11.5 mphSnowLight Snow
8:50 AM32.0 °F30.2 °F93 %29.59 in1.4 miSW (230°)12.7 mphSnowSnow
9:00 AM32.0 °F29.0 °F85 %29.66 inSW (230°)12.7 mph
9:20 AM32.0 °F30.2 °F93 %29.59 in5.0 miSW (220°)15.0 mphMostly Cloudy
9:50 AM33.8 °F28.4 °F81 %29.59 in6.2 miSSW (210°)17.3 mphMostly Cloudy
10:20 AM33.8 °F28.4 °F81 %29.56 in6.2 miSW (220°)16.1 mphMostly Cloudy
10:50 AM33.8 °F28.4 °F81 %29.56 in3.1 miSW (220°)17.3 mphSnowSnow Showers
11:00 AM35.0 °F29.0 °F69 %29.62 inSW (230°)17.3 mph
11:20 AM33.8 °F30.2 °F87 %29.56 in3.1 miSW (220°)15.0 mphSnowSnow Showers
11:50 AM35.6 °F30.2 °F81 %29.56 in5.6 miSW (220°)17.3 mphSnowLight Snow
12:00 PM36.0 °F29.0 °F67 %29.60 inSW (220°)18.4 mph
12:20 PM35.6 °F30.2 °F81 %29.53 in2.2 miSW (230°)16.1 mphSnowSnow
12:50 PM33.8 °F32.0 °F93 %29.53 in1.2 miSW (220°)15.0 mphSnowSnow
1:00 PM35.0 °F32.0 °F83 %29.59 in1.0 miSW (220°)12.7 mphSnowHeavy Snow
1:20 PM35.6 °F32.0 °F87 %29.53 inSW (230°)13.8 mph26.5 mphSnowLight Snow
1:50 PM33.8 °F32.0 °F93 %29.53 in1.9 miSSW (210°)13.8 mphSnowLight Snow
2:00 PM35.0 °F32.0 °F84 %29.58 inSSW (210°)15.0 mph
2:20 PM33.8 °F32.0 °F93 %29.50 in0.5 miSSW (210°)15.0 mphSnowHeavy Snow
2:50 PM33.8 °F32.0 °F93 %29.53 inSSW (210°)8.1 mphSnowLight Snow
3:00 PM34.0 °F32.0 °F89 %29.58 inSSW (200°)6.9 mph
3:20 PM33.8 °F32.0 °F93 %29.53 in1.9 miSSW (210°)8.1 mphSnowSnow
3:50 PM33.8 °F32.0 °F93 %29.53 in2.8 miSW (220°)11.5 mphSnowSnow Showers
4:20 PM35.6 °F33.8 °F93 %29.53 in6.2 miSW (230°)10.4 mphRainLight Rain Showers
4:50 PM35.6 °F33.8 °F93 %29.53 in6.2 miSSW (210°)5.8 mphRain-SnowLight Rain Showers
5:00 PM36.0 °F33.0 °F82 %29.59 inSW (220°)11.5 mph
5:20 PM35.6 °F33.8 °F93 %29.53 in6.2 miWSW (250°)5.8 mphRain-SnowLight Rain Showers
5:50 PM35.6 °F33.8 °F93 %29.56 in6.2 miWSW (240°)6.9 mphRainLight Rain Showers
6:00 PM35.0 °F32.0 °F83 %29.62 inWNW (290°)4.6 mph
6:20 PM35.6 °F32.0 °F87 %29.56 in6.2 miVariable3.5 mphMostly Cloudy
6:50 PM33.8 °F30.2 °F87 %29.59 in0.6 miNNW (330°)8.1 mphSnowHeavy Snow Showers
7:00 PM33.0 °F31.0 °F91 %29.68 in28.0 miWest (260°)4.6 mphRainLight Rain Showers
7:20 PM32.0 °F32.0 °F100 %29.62 in5.6 miSouth (180°)4.6 mphSnowLight Snow Showers
7:50 PM33.8 °F30.2 °F87 %29.62 in6.2 miVariable6.9 mphMostly Cloudy
8:00 PM35.0 °F25.0 °F56 %29.68 inWNW (290°)8.1 mph
8:20 PM33.8 °F26.6 °F75 %29.62 in2.2 miNNW (330°)4.6 mphSnowSnow
8:50 PM33.8 °F28.4 °F81 %29.65 in5.6 miVariable3.5 mphSnowLight Snow
9:00 PM33.0 °F28.0 °F77 %29.71 inNorth4.6 mph
9:20 PM32.0 °F28.4 °F87 %29.65 in5.0 miWest (260°)4.6 mphMostly Cloudy
9:50 PM33.8 °F26.6 °F75 %29.65 in6.2 miSSW (200°)4.6 mphMostly Cloudy
10:20 PM32.0 °F28.4 °F87 %29.68 in6.2 miVariable2.3 mphMostly Cloudy
10:50 PM32.0 °F28.4 °F87 %29.68 in6.2 miVariable2.3 mphMostly Cloudy
11:00 PM34.0 °F28.0 °F69 %29.75 inWSW (240°)5.8 mph
11:20 PM32.0 °F30.2 °F93 %29.68 in5.0 miSW (220°)8.1 mphSnowLight Snow Showers
11:50 PM32.0 °F28.4 °F87 %29.71 in5.6 miWest (260°)4.6 mphMostly Cloudy
Hourly data recorded from LSGG, located miles away from Annemasse, France







STORIES FROM OUR PARTNERS